Location: Couloutre
(47.4081°N, 3.2259°E)
Time: 20:24:00
(UTC+00:00)

Cosmos 2227 Rocket - Pass Details

Date: 27 February 2020
Orbit: 839 x 845 km, 71.0° (Epoch: 03 April)

Event Time Altitude Azimuth Distance (km) Brightness Sun altitude
Rises 19:57:17 0° 332° (NNW) 3,407 6.0 -25.8°
Reaches altitude 10° 19:59:45 10° 334° (NNW) 2,469 5.1 -26.2°
Maximum altitude 20:05:26 85° 62° (ENE) 852 2.0 -27.1°
Enters shadow 20:05:34 84° 100° (E) 854 2.0 -27.1°
